Flag for U.S.A. Weather past 2 weeks in Fort Bragg, California, U.S.A.

Now
80 °F

Sunny.


Feels Like: 80 °F
Forecast: 55 / 65 °F
Wind: 6 mph from East

Location: Ukiah Municipal

Current Time: Jul 7, 2015 at 1:32:15 PM

Latest Report: Jul 7, 2015 at 12:56 PM


Visibility: 10 mi

Pressure: 29.93 "Hg

Humidity: 42%

Dew point: 55 °F

Location of Fort BraggLocation

Historic Weather in Fort Bragg — Graph

°F

Fort Bragg temperature yesterday

Maximum temperature yesterday: 88 °F (at 1:56 PM)
Minimum temperature yesterday: 59 °F (at 4:56 AM)
Average temperature yesterday: 71 °F

Past Weeks' High & Low Weather Summary

 TemperatureHumidityPressure
High106 °F (Jun 30, 2:56 PM)90% (Jun 29, 5:56 AM)30.06 "Hg (Jun 29, 5:56 AM)
Low54 °F (Jun 23, 5:56 AM)13% (Jun 30, 2:56 PM)29.72 "Hg (Jul 4, 3:56 PM)
Average77 °F45%29.89 "Hg
* Reported Jun 22 11:56 AM — Jul 7 11:56 AM, Fort Bragg, Weather by CustomWeather, © 2015

Note: Actual official high and low records may vary slightly from our data, if they occured in-between our weather recording intervals... More about our weather records

Advertising

Fort Bragg weather history for previous 24 hours

 ConditionsComfort  
Time TempWeatherWind HumidityBarometerVisibility
11:56 AM
Tue, Jul 7
75 °FSunny.3 mph50%29.95 "Hg10 mi
10:56 AM71 °FSunny.5 mph55%29.97 "Hg10 mi
9:56 AM70 °FSunny.No wind59%29.98 "Hg10 mi
8:56 AM66 °FSunny.No wind65%30.00 "Hg10 mi
7:56 AM62 °FSunny.5 mph75%30.00 "Hg10 mi
6:56 AM58 °FSunny.No wind81%30.00 "Hg10 mi
5:56 AM56 °FClear.No wind84%29.99 "Hg10 mi
4:56 AM57 °FClear.No wind83%29.97 "Hg10 mi
3:56 AM60 °FClear.No wind78%29.97 "Hg10 mi
2:56 AM62 °FClear.3 mph73%29.98 "Hg10 mi
1:56 AM62 °FClear.No wind73%29.99 "Hg10 mi
12:56 AM63 °FClear.No wind73%30.00 "Hg10 mi
11:56 PM
Mon, Jul 6
65 °FClear.No wind68%30.01 "Hg10 mi
10:56 PM67 °FClear.5 mph63%30.01 "Hg10 mi
9:56 PM68 °FClear.6 mph61%30.00 "Hg10 mi
8:56 PM72 °FSunny.8 mph53%29.98 "Hg10 mi
7:56 PM77 °FSunny.8 mph45%29.96 "Hg10 mi
6:56 PM82 °FSunny.8 mph37%29.95 "Hg10 mi
5:56 PM86 °FSunny.8 mph31%29.94 "Hg10 mi
4:56 PM88 °FSunny.8 mph30%29.94 "Hg10 mi
3:56 PM88 °FSunny.10 mph30%29.96 "Hg10 mi
2:56 PM88 °FSunny.7 mph29%29.97 "Hg10 mi
1:56 PM88 °FSunny.7 mph31%29.98 "Hg10 mi
Weather by CustomWeather, © 2015

See weather overviewHow to use our weather pages